GW0720 Weather Reports


Display with metric or nautical units.
time (UTC)temp
F
wind
direction
speed
MPH
gust
MPH
rain 1hr
in
rain 24hr
in
rain mn
in
humidity
%
barometer
mb
20260507083108 62 261 3.0 9.0 0.00 0.09 0.00 85 1011.3
20260507081604 66 242 2.0 7.0 0.00 0.09 0.00 87 1010.8
20260507080107 67 0 0.0 2.0 0.00 0.09 0.00 88 1010.6
20260507074605 67 0 0.0 2.0 0.00 0.09 0.00 87 1009.9
20260507073100 67 0 0.0 3.0 0.00 0.09 0.00 87 1010.3
20260507071551 67 0 0.0 2.0 0.00 0.09 0.00 87 1010.2
20260507070051 67 0 0.0 3.0 0.00 0.09 0.00 87 1010.2
20260507064552 67 0 0.0 2.0 0.00 0.09 0.00 87 1009.9
20260507063052 68 0 0.0 2.0 0.00 0.09 0.00 86 1009.7
20260507061553 68 0 0.0 1.0 0.00 0.09 0.00 86 1009.4
20260507060057 68 0 0.0 3.0 0.00 0.09 0.00 85 1009.5
20260507054553 69 0 0.0 3.0 0.00 0.09 0.00 84 1009.9
20260507053055 69 319 0.0 5.0 0.00 0.09 0.00 84 1009.7
20260507051555 69 18 0.0 4.0 0.00 0.09 0.00 84 1010.0
20260507050052 69 0 0.0 3.0 0.00 0.09 0.00 84 1010.6
20260507044554 69 0 0.0 3.0 0.00 0.09 0.00 84 1010.8
20260507043053 69 0 0.0 8.0 0.00 0.09 0.00 84 1011.0
20260507041555 69 0 0.0 7.0 0.00 0.09 0.00 84 1011.0
20260507040052 68 11 0.0 7.0 0.00 0.09 0.00 85 1010.7
20260507034556 68 350 0.0 2.0 0.00 0.09 0.09 86 1011.0
20260507033101 67 0 0.0 3.0 0.00 0.09 0.09 88 1011.0
20260507031551 67 0 0.0 1.0 0.00 0.09 0.09 88 1010.6
20260507030054 66 61 0.0 2.0 0.00 0.09 0.09 89 1010.4
20260507024613 66 0 0.0 2.0 0.00 0.09 0.09 89 1010.2
20260507023054 66 0 0.0 2.0 0.00 0.09 0.09 90 1010.6
20260507021554 66 0 0.0 1.0 0.00 0.09 0.09 90 1010.7
20260507020109 65 0 0.0 0.0 0.00 0.09 0.09 90 1011.0
20260507014604 65 0 0.0 1.0 0.00 0.09 0.09 90 1011.1
20260507013054 65 0 0.0 0.0 0.00 0.09 0.09 90 1011.0
20260507011553 65 0 0.0 0.0 0.00 0.09 0.09 89 1010.9
20260507010056 66 0 0.0 0.0 0.00 0.09 0.09 87 1010.8
20260507004557 67 0 0.0 0.0 0.00 0.09 0.09 86 1010.9
20260507003058 67 0 0.0 0.0 0.00 0.09 0.09 85 1011.0
20260507001601 69 0 0.0 2.0 0.00 0.09 0.09 83 1011.0
20260506234609 70 0 0.0 6.0 0.00 0.09 0.09 81 1010.6
20260506231602 71 56 0.0 4.0 0.00 0.09 0.09 79 1010.6
20260506230059 71 47 0.0 3.0 0.00 0.09 0.09 78 1010.7
20260506224554 71 0 0.0 7.0 0.00 0.09 0.09 79 1010.7
20260506223057 71 0 1.0 4.0 0.00 0.09 0.09 78 1010.6
20260506221553 71 0 0.0 4.0 0.00 0.09 0.09 79 1010.7
20260506220055 71 73 0.0 5.0 0.00 0.09 0.09 77 1010.5
20260506214555 72 280 1.0 8.0 0.00 0.09 0.09 77 1010.7
20260506213113 72 42 1.0 8.0 0.00 0.09 0.09 75 1010.6
20260506211611 71 271 1.0 4.0 0.00 0.09 0.09 77 1010.8
20260506210101 72 0 1.0 7.0 0.00 0.09 0.09 77 1010.7
20260506204600 71 0 0.0 4.0 0.00 0.09 0.09 83 1010.8
20260506203058 70 0 0.0 3.0 0.00 0.09 0.09 82 1010.6
20260506201609 70 0 0.0 3.0 0.00 0.09 0.09 83 1010.8
20260506200059 69 0 0.0 2.0 0.00 0.09 0.09 84 1010.8
20260506194619 69 0 0.0 3.0 0.00 0.09 0.09 85 1010.2
20260506193055 68 38 0.0 4.0 0.01 0.09 0.09 84 1010.1
20260506191554 67 43 0.0 5.0 0.01 0.09 0.09 85 1010.7
20260506190055 66 0 0.0 5.0 0.01 0.09 0.09 88 1011.0
20260506184606 66 0 1.0 4.0 0.01 0.09 0.09 87 1011.0
20260506183101 66 50 1.0 8.0 0.00 0.08 0.08 86 1011.1
20260506181601 66 0 1.0 3.0 0.00 0.08 0.08 85 1011.8
20260506174603 66 57 1.0 9.0 0.00 0.08 0.08 84 1012.0
20260506173054 66 15 1.0 5.0 0.00 0.08 0.08 85 1011.9
20260506171555 66 19 2.0 8.0 0.00 0.08 0.08 85 1011.7
20260506170109 65 281 0.0 5.0 0.00 0.08 0.08 86 1012.0
20260506164556 65 348 1.0 7.0 0.00 0.08 0.08 86 1012.1
20260506163110 65 281 0.0 6.0 0.00 0.08 0.08 87 1012.2
20260506161553 64 68 1.0 9.0 0.00 0.08 0.08 88 1012.0
20260506160053 63 70 1.0 6.0 0.00 0.08 0.08 89 1011.9
20260506154555 63 0 0.0 4.0 0.00 0.08 0.08 89 1012.2
20260506153053 63 44 0.0 7.0 0.04 0.08 0.08 91 1012.8
20260506151555 63 109 0.0 3.0 0.07 0.08 0.08 91 1013.0
20260506150139 62 0 0.0 3.0 0.08 0.08 0.08 91 1012.9
20260506144607 62 0 0.0 3.0 0.08 0.08 0.08 90 1012.9
20260506143110 63 39 0.0 2.0 0.04 0.04 0.04 88 1013.1
20260506141555 63 0 0.0 4.0 0.01 0.01 0.01 84 1013.3
20260506140053 64 0 1.0 5.0 0.00 0.00 0.00 82 1013.0
20260506134553 66 45 1.0 4.0 0.00 0.00 0.00 75 1013.0
20260506133054 66 0 2.0 10.0 0.00 0.00 0.00 74 1012.9
20260506130100 66 82 1.0 8.0 0.00 0.00 0.00 75 1012.7
20260506124553 65 17 3.0 9.0 0.00 0.00 0.00 75 1012.6
20260506123056 65 0 0.0 8.0 0.00 0.00 0.00 76 1012.7
20260506121558 65 15 2.0 6.0 0.00 0.00 0.00 75 1012.3
20260506120100 65 37 1.0 5.0 0.00 0.00 0.00 76 1012.4
20260506114556 65 61 2.0 6.0 0.00 0.00 0.00 75 1012.4
20260506113056 64 43 2.0 7.0 0.00 0.00 0.00 76 1012.5
20260506111557 64 32 3.0 7.0 0.00 0.00 0.00 76 1012.6
20260506110057 64 0 2.0 10.0 0.00 0.00 0.00 76 1012.5
20260506104556 64 0 1.0 8.0 0.00 0.00 0.00 76 1012.7
20260506103119 64 60 0.0 3.0 0.00 0.00 0.00 76 1012.9
20260506101600 64 5 1.0 6.0 0.00 0.00 0.00 75 1012.7
20260506100100 64 61 1.0 5.0 0.00 0.00 0.00 75 1012.4
20260506094608 64 49 1.0 9.0 0.00 0.00 0.00 75 1012.3
20260506093059 64 62 1.0 4.0 0.00 0.00 0.00 76 1012.4
20260506091608 64 46 0.0 3.0 0.00 0.00 0.00 76 1012.3
20260506090100 64 0 1.0 6.0 0.00 0.00 0.00 76 1012.5
20260506084613 64 71 3.0 8.0 0.00 0.00 0.00 77 1012.5